Weather History for KS32 - October, 2011

Change the Weather History Date:

Saturday, October 29, 2011

  Actual Average (KJMS) Record (KJMS)
Temperature  
Mean Temperature 34 °F 38 °F  
Max Temperature 46 °F 49 °F 80 °F (1950)
Min Temperature 21 °F 27 °F -6 °F (1895)
Degree Days  
Heating Degree Days 32 27  
Month to date heating degree days 595  
Since 1 July heating degree days 913  
Cooling Degree Days 0 0  
Month to date cooling degree days 0  
Year to date cooling degree days 445  
Moisture  
Dew Point 25 °F    
Average Humidity 73    
Maximum Humidity 100    
Minimum Humidity 43    
Precipitation  
Precipitation 0.00 in 0.04 in 1.40 in (2004)
Month to date precipitation 1.48  
Year to date precipitation 17.67  
Sea Level Pressure  
Sea Level Pressure 29.88 in    
Wind  
Wind Speed 7 mph (South)    
Max Wind Speed 22 mph    
Max Gust Speed 26 mph    
Visibility 10 miles    
Events Rain    
T = Trace of Precipitation, MM = Missing Value Source: NWS Daily Summary

Daily Weather History Graph

Daily Weather History Graph

Search for Another Location

Airport or City:

Trip Planner

Search our weather history database for the weather conditions in past years. The results will help you decide how hot, cold, wet, or windy it might be!

Date:

Astronomy

Oct. 29, 2011 Rise Set
Actual Time 8:11 AM CDT 6:20 PM CDT
Civil Twilight 7:39 AM CDT 6:52 PM CDT
Nautical Twilight 7:03 AM CDT 7:28 PM CDT
Astronomical Twilight 6:27 AM CDT 8:03 PM CDT
Moon 11:48 AM CDT (10/29) 8:31 PM CDT (10/29)
Length of Visible Light 11h 12m
Length of Day
10h 09m
Waxing Crescent, 12% of the Moon is Illuminated
Oct 29
Waxing Crescent
Nov 2
First Quarter
Nov 10
Full
Nov 18
Last Quarter
Nov 25
New

Hourly Weather History & Observations

Time (CDT) Temp. Windchill Dew Point Humidity Pressure Visibility Wind Dir Wind Speed Gust Speed Precip Events Conditions
12:15 AM 24.8 °F - 23.0 °F 93% 30.01 in 10.0 mi Calm Calm - N/A   Clear
12:35 AM 26.6 °F - 24.8 °F 93% 30.00 in 10.0 mi Calm Calm - N/A   Clear
12:55 AM 24.8 °F 17.9 °F 23.0 °F 93% 30.01 in 10.0 mi SW 5.8 mph - N/A   Clear
1:15 AM 23.0 °F 18.4 °F 23.0 °F 100% 30.00 in 10.0 mi South 3.5 mph - N/A   Clear
1:35 AM 24.8 °F 16.9 °F 23.0 °F 93% 30.00 in 10.0 mi South 6.9 mph - N/A   Clear
1:55 AM 24.8 °F 17.9 °F 24.8 °F 100% 30.00 in 10.0 mi SSW 5.8 mph - N/A   Clear
2:15 AM 24.8 °F 17.9 °F 24.8 °F 100% 29.99 in 10.0 mi South 5.8 mph - N/A   Clear
2:35 AM 23.0 °F 18.4 °F 23.0 °F 100% 29.99 in 10.0 mi South 3.5 mph - N/A   Clear
2:55 AM 23.0 °F 15.8 °F 23.0 °F 100% 29.99 in 10.0 mi South 5.8 mph - N/A   Clear
3:15 AM 23.0 °F 17.0 °F 23.0 °F 100% 29.98 in 10.0 mi South 4.6 mph - N/A   Clear
3:35 AM 24.8 °F - 24.8 °F 100% 29.99 in 10.0 mi Calm Calm - N/A   Clear
3:55 AM 23.0 °F 18.4 °F 21.2 °F 93% 29.98 in 10.0 mi SSW 3.5 mph - N/A   Clear
4:15 AM 23.0 °F - 23.0 °F 100% 29.98 in 10.0 mi Calm Calm - N/A   Clear
4:35 AM 23.0 °F 18.4 °F 23.0 °F 100% 29.97 in 10.0 mi South 3.5 mph - N/A   Clear
5:15 AM 21.2 °F 13.6 °F 21.2 °F 100% 29.95 in 10.0 mi SSE 5.8 mph - N/A   Clear
5:35 AM 21.2 °F 13.6 °F 21.2 °F 100% 29.94 in 10.0 mi SSE 5.8 mph - N/A   Clear
5:55 AM 21.2 °F 12.6 °F 21.2 °F 100% 29.94 in 10.0 mi South 6.9 mph - N/A   Clear
6:15 AM 23.0 °F 14.7 °F 23.0 °F 100% 29.94 in 10.0 mi South 6.9 mph - N/A   Clear
6:35 AM 23.0 °F 17.0 °F 23.0 °F 100% 29.94 in 10.0 mi South 4.6 mph - N/A   Clear
6:55 AM 23.0 °F 15.8 °F 23.0 °F 100% 29.94 in 10.0 mi South 5.8 mph - N/A   Clear
7:15 AM 23.0 °F 14.7 °F 21.2 °F 93% 29.93 in 10.0 mi SE 6.9 mph - N/A   Clear
7:35 AM 21.2 °F 12.6 °F 21.2 °F 100% 29.93 in 10.0 mi SE 6.9 mph - N/A   Clear
7:55 AM 23.0 °F 14.7 °F 23.0 °F 100% 29.92 in 10.0 mi SE 6.9 mph - N/A   Clear
8:15 AM 23.0 °F 15.8 °F 23.0 °F 100% 29.92 in 10.0 mi SSE 5.8 mph - N/A   Clear
8:35 AM 23.0 °F 13.9 °F 23.0 °F 100% 29.92 in 10.0 mi SSE 8.1 mph - N/A   Clear
8:55 AM 26.6 °F 18.2 °F 24.8 °F 93% 29.92 in 10.0 mi South 8.1 mph - N/A   Clear
9:15 AM 28.4 °F 20.4 °F 26.6 °F 93% 29.92 in 10.0 mi SSE 8.1 mph - N/A   Clear
9:35 AM 32.0 °F 24.8 °F 28.4 °F 87% 29.91 in 10.0 mi SSE 8.1 mph - N/A   Clear
10:15 AM 35.6 °F 28.6 °F 30.2 °F 81% 29.90 in 10.0 mi SSE 9.2 mph - N/A   Clear
10:35 AM 35.6 °F 27.5 °F 28.4 °F 75% 29.89 in 10.0 mi SSE 11.5 mph - N/A   Clear
10:55 AM 37.4 °F 29.8 °F 30.2 °F 75% 29.88 in 10.0 mi SSE 11.5 mph - N/A   Mostly Cloudy
11:15 AM 39.2 °F 31.2 °F 32.0 °F 75% 29.87 in 10.0 mi SSE 13.8 mph - N/A   Mostly Cloudy
11:35 AM 41.0 °F 32.8 °F 28.4 °F 61% 29.86 in 10.0 mi SSE 16.1 mph - N/A   Mostly Cloudy
12:15 PM 42.8 °F 34.3 °F 26.6 °F 53% 29.85 in 10.0 mi South 19.6 mph 24.2 mph N/A   Mostly Cloudy
12:55 PM 46.4 °F 39.0 °F 24.8 °F 43% 29.83 in 10.0 mi South 19.6 mph 25.3 mph N/A   Clear
1:15 PM 46.4 °F 39.2 °F 26.6 °F 46% 29.83 in 10.0 mi South 18.4 mph 21.9 mph N/A   Scattered Clouds
1:35 PM 46.4 °F 38.7 °F 24.8 °F 43% 29.82 in 10.0 mi South 20.7 mph 24.2 mph N/A   Scattered Clouds
1:55 PM 46.4 °F 38.7 °F 26.6 °F 46% 29.81 in 10.0 mi South 20.7 mph 25.3 mph N/A   Clear
2:15 PM 46.4 °F 39.2 °F 24.8 °F 43% 29.80 in 10.0 mi South 18.4 mph - N/A   Clear
2:35 PM 46.4 °F 38.5 °F 26.6 °F 46% 29.80 in 10.0 mi South 21.9 mph 26.5 mph N/A   Clear
2:55 PM 46.4 °F 39.5 °F 26.6 °F 46% 29.81 in 10.0 mi South 17.3 mph - N/A   Clear
3:15 PM 46.4 °F 40.4 °F 26.6 °F 46% 29.81 in 10.0 mi South 13.8 mph 19.6 mph N/A   Clear
3:35 PM 46.4 °F 40.4 °F 26.6 °F 46% 29.79 in 10.0 mi South 13.8 mph - N/A   Mostly Cloudy
3:55 PM 46.4 °F 39.8 °F 26.6 °F 46% 29.79 in 10.0 mi SSE 16.1 mph 20.7 mph N/A   Mostly Cloudy
4:15 PM 46.4 °F 40.7 °F 28.4 °F 50% 29.78 in 10.0 mi SSE 12.7 mph 17.3 mph N/A   Mostly Cloudy
4:35 PM 46.4 °F 39.5 °F 28.4 °F 50% 29.77 in 10.0 mi SE 17.3 mph 20.7 mph N/A   Partly Cloudy
4:55 PM 46.4 °F 39.0 °F 24.8 °F 43% 29.75 in 10.0 mi SSE 19.6 mph - N/A   Clear
5:15 PM 46.4 °F 39.8 °F 24.8 °F 43% 29.76 in 10.0 mi SSE 16.1 mph - N/A   Clear
5:35 PM 46.4 °F 40.1 °F 24.8 °F 43% 29.77 in 10.0 mi SSE 15.0 mph 20.7 mph N/A   Scattered Clouds
6:15 PM 44.6 °F 38.1 °F 26.6 °F 49% 29.77 in 10.0 mi South 13.8 mph - N/A   Mostly Cloudy
6:35 PM 44.6 °F 38.8 °F 26.6 °F 49% 29.78 in 10.0 mi South 11.5 mph - N/A   Mostly Cloudy
6:55 PM 44.6 °F 38.8 °F 26.6 °F 49% 29.78 in 10.0 mi South 11.5 mph - N/A   Scattered Clouds
7:15 PM 44.6 °F 38.8 °F 26.6 °F 49% 29.78 in 10.0 mi SSE 11.5 mph - N/A   Scattered Clouds
7:35 PM 42.8 °F 37.0 °F 26.6 °F 53% 29.79 in 10.0 mi South 10.4 mph - N/A   Mostly Cloudy
7:55 PM 42.8 °F 37.5 °F 26.6 °F 53% 29.79 in 10.0 mi SSE 9.2 mph - N/A   Overcast
8:15 PM 42.8 °F 36.2 °F 26.6 °F 53% 29.77 in 10.0 mi SE 12.7 mph - N/A   Mostly Cloudy
8:35 PM 42.8 °F 36.2 °F 26.6 °F 53% 29.77 in 10.0 mi SSE 12.7 mph - N/A   Mostly Cloudy
8:55 PM 42.8 °F 36.2 °F 26.6 °F 53% 29.77 in 10.0 mi South 12.7 mph - N/A   Mostly Cloudy
9:15 PM 42.8 °F 36.6 °F 28.4 °F 57% 29.79 in 10.0 mi SSW 11.5 mph - N/A   Mostly Cloudy
9:35 PM 42.8 °F 36.2 °F 30.2 °F 61% 29.79 in 8.0 mi SW 12.7 mph - N/A Rain Light Rain
9:55 PM 42.8 °F 41.1 °F 32.0 °F 66% 29.77 in 10.0 mi SW 3.5 mph - N/A   Mostly Cloudy
10:15 PM 41.0 °F 35.8 °F 35.6 °F 81% 29.76 in 10.0 mi SSE 8.1 mph - N/A   Scattered Clouds
10:35 PM 39.2 °F 33.0 °F 33.8 °F 81% 29.76 in 10.0 mi SSE 9.2 mph - N/A   Scattered Clouds
10:55 PM 39.2 °F 33.6 °F 32.0 °F 75% 29.76 in 10.0 mi South 8.1 mph - N/A   Mostly Cloudy
11:15 PM 39.2 °F 33.6 °F 32.0 °F 75% 29.76 in 10.0 mi SSW 8.1 mph - N/A   Overcast
11:35 PM 37.4 °F 32.1 °F 32.0 °F 81% 29.77 in 10.0 mi SW 6.9 mph - N/A   Overcast
11:55 PM 37.4 °F 31.4 °F 32.0 °F 81% 29.77 in 10.0 mi WSW 8.1 mph - N/A   Overcast